Home   Weather   42°23'N, 89°01'W   Past weeks
Flag for USA

Past Weather in 42°23'N, 89°01'W, USA — Yesterday and Last 2 Weeks

Now
49 °F

Partly sunny.


Feels Like: N/A
Forecast: 48 / 22 °F
Wind: N/A

Location: Greater Rockford Airport

Current Time: Mar 26, 2019 at 5:51:37 pm

Latest Report: Mar 26, 2019 at 4:54 pm


Visibility: 10 mi

Pressure: 30.43 "Hg

Humidity: 25%

Dew Point: 14 °F

Location of 42°23'N, 89°01'WLocation

Past Weather in 42°23'N, 89°01'W — Graph

°F

42°23'N, 89°01'W Temperature Yesterday

Maximum temperature yesterday: 47 °F (at 2:54 pm)
Minimum temperature yesterday: 30 °F (at 6:54 am)
Average temperature yesterday: 37 °F

High & Low Weather Summary for the Past Weeks

 TemperatureHumidityPressure
High63 °F (Mar 14, 12:54 pm)93% (Mar 13, 3:10 am)30.53 "Hg (Mar 13, 3:10 am)
Low21 °F (Mar 12, 6:54 am)21% (Mar 26, 1:54 pm)29.25 "Hg (Mar 14, 1:07 pm)
Average39 °F70%30.12 "Hg
* Reported Mar 11 3:54 pm — Mar 26 3:54 pm, 42°23'N, 89°01'W. Weather by CustomWeather, © 2019

Note: Actual official high and low records may vary slightly from our data, if they occured in-between our weather recording intervals... More about our weather records

Advertising

42°23'N, 89°01'W Weather History for the Previous 24 Hours

Scroll right to see more
 ConditionsComfort  
Time TempWeatherWind HumidityBarometerVisibility
3:54 pm
Tue, Mar 26
48 °FPartly sunny.6 mph22%30.45 "Hg10 mi
2:54 pm48 °FScattered clouds.9 mph24%30.45 "Hg10 mi
1:54 pm47 °FScattered clouds.5 mph21%30.47 "Hg10 mi
12:54 pm46 °FPassing clouds.9 mph22%30.50 "Hg10 mi
11:54 am44 °FPassing clouds.6 mph24%30.52 "Hg10 mi
10:54 am42 °FPassing clouds.6 mph35%30.53 "Hg10 mi
9:54 am38 °FPassing clouds.7 mph41%30.52 "Hg10 mi
8:54 am33 °FPassing clouds.No wind58%30.51 "Hg10 mi
7:54 am27 °FPassing clouds.No wind75%30.49 "Hg10 mi
6:54 am22 °FPassing clouds.3 mph75%30.47 "Hg10 mi
5:54 am24 °FClear.No wind68%30.45 "Hg10 mi
4:54 am25 °FClear.No wind66%30.44 "Hg10 mi
3:54 am25 °FClear.3 mph66%30.43 "Hg10 mi
2:54 am25 °FClear.No wind60%30.44 "Hg10 mi
1:54 am29 °FClear.No wind47%30.43 "Hg10 mi
12:54 am31 °FClear.No wind41%30.43 "Hg10 mi
11:54 pm
Mon, Mar 25
31 °FClear.3 mph40%30.43 "Hg10 mi
10:54 pm31 °FPassing clouds.5 mph38%30.42 "Hg10 mi
9:54 pm33 °FPassing clouds.3 mph33%30.41 "Hg10 mi
8:54 pm35 °FPassing clouds.8 mph32%30.39 "Hg10 mi
7:54 pm37 °FPassing clouds.7 mph27%30.37 "Hg10 mi
6:54 pm41 °FPassing clouds.10 mph26%30.36 "Hg10 mi
5:54 pm44 °FPassing clouds.8 mph22%30.34 "Hg10 mi
Weather by CustomWeather, © 2019

See weather overview